TimeEST,TemperatureF,Dew PointF,Humidity,Sea Level PressureIn,VisibilityMPH,Wind Direction,Wind SpeedMPH,Gust SpeedMPH,PrecipitationIn,Events,Conditions,WindDirDegrees,DateUTC
12:52 AM,36.0,30.9,82,30.12,-9999.0,Calm,Calm,-,N/A,,Clear,0,2013-12-20 05:52:00
1:52 AM,35.1,30.0,82,30.11,-9999.0,Calm,Calm,-,N/A,,Clear,0,2013-12-20 06:52:00
2:52 AM,35.1,30.0,82,30.12,-9999.0,Calm,Calm,-,N/A,,Clear,0,2013-12-20 07:52:00
3:52 AM,34.0,30.0,85,30.11,-9999.0,North,3.5,-,N/A,,Clear,350,2013-12-20 08:52:00
4:52 AM,34.0,28.9,82,30.10,-9999.0,Calm,Calm,-,N/A,,Clear,0,2013-12-20 09:52:00
5:52 AM,35.1,30.0,82,30.09,-9999.0,NNE,3.5,-,N/A,,Clear,20,2013-12-20 10:52:00
6:52 AM,34.0,30.0,85,30.10,-9999.0,Calm,Calm,-,N/A,,Clear,0,2013-12-20 11:52:00
7:52 AM,33.1,30.0,89,30.09,-9999.0,Calm,Calm,-,N/A,,Clear,0,2013-12-20 12:52:00
8:52 AM,35.1,30.0,82,30.09,10.0,North,3.5,-,N/A,,Clear,10,2013-12-20 13:52:00
9:52 AM,37.0,34.0,89,30.06,10.0,Calm,Calm,-,N/A,,Clear,0,2013-12-20 14:52:00
10:52 AM,44.1,37.0,76,30.05,-9999.0,SW,5.8,-,N/A,,Clear,220,2013-12-20 15:52:00
11:52 AM,44.1,35.1,71,30.02,-9999.0,WSW,6.9,-,N/A,,Clear,250,2013-12-20 16:52:00
12:52 PM,46.0,34.0,63,30.00,-9999.0,WSW,6.9,-,N/A,,Clear,240,2013-12-20 17:52:00
1:52 PM,45.0,34.0,65,29.99,-9999.0,WSW,6.9,-,N/A,,Clear,250,2013-12-20 18:52:00
2:52 PM,43.0,36.0,76,29.98,-9999.0,SW,6.9,-,N/A,,Clear,230,2013-12-20 19:52:00
3:52 PM,43.0,36.0,76,29.99,-9999.0,Calm,Calm,-,N/A,,Clear,0,2013-12-20 20:52:00
4:52 PM,42.1,35.1,76,29.99,-9999.0,SSW,3.5,-,N/A,,Scattered Clouds,200,2013-12-20 21:52:00
5:52 PM,42.1,34.0,73,29.99,-9999.0,West,3.5,-,N/A,,Scattered Clouds,260,2013-12-20 22:52:00
6:52 PM,41.0,36.0,82,29.99,-9999.0,SW,4.6,-,N/A,,Clear,220,2013-12-20 23:52:00
7:52 PM,42.1,36.0,79,30.01,-9999.0,West,3.5,-,N/A,,Partly Cloudy,260,2013-12-21 00:52:00
8:52 PM,41.0,36.0,82,30.01,-9999.0,Calm,Calm,-,N/A,,Mostly Cloudy,0,2013-12-21 01:52:00
9:52 PM,42.1,36.0,79,30.01,-9999.0,SW,3.5,-,N/A,,Overcast,230,2013-12-21 02:52:00
10:52 PM,39.9,36.0,86,29.99,-9999.0,Calm,Calm,-,N/A,,Overcast,0,2013-12-21 03:52:00
11:52 PM,42.1,37.0,82,29.99,-9999.0,WSW,4.6,-,N/A,,Mostly Cloudy,250,2013-12-21 04:52:00